[[{"header":{"parameterUnit":"m.s-1","parameterCategory":1,"la1":30.2991,"la2":30.254,"lo1":-89.0895,"lo2":-89.0444,"dy":0.0017,"dx":0.0017,"nx":28,"ny":28,"refTime":"2025-03-30T21:00:00:Z","depth":0,"parameterNumber":2,"parameterNumberName":"U-component_of_WINDS"},"data":[0,0,0,0,0,0,0,0,0,0,0,0,0,0,0,0,0,0,0,0,0,0,0,0,0,0,0,0,0,0,0,0,0,0,0,0,0,0,0,0,0,0,0,0,0,0,0,0,0,0,0,0,0,0,0,0,0,0,-2.0901,-2.0901,0,-2.0898,-2.0898,-2.0898,-2.0882,-2.0882,-2.0881,-2.0881,-2.0878,-2.0878,-2.0879,0,0,0,0,0,0,0,0,0,0,0,0,0,-2.0893,-2.0893,-2.0901,-2.0901,-2.0901,-2.0898,-2.0898,-2.0898,-2.0882,-2.0882,-2.0881,-2.0881,-2.0878,-2.0878,-2.0879,0,0,0,0,0,0,0,0,0,0,0,0,0,-2.0894,-2.0893,-2.0901,-2.0893,-2.0892,-2.0898,-2.0898,-2.0898,-2.0882,-2.0882,-2.0881,-2.0881,-2.0878,-2.0878,-2.0879,-2.0892,0,0,-2.088,-2.088,0,0,0,0,0,0,0,0,-2.0894,-2.0894,-2.0894,-2.0893,-2.0892,-2.089,-2.0894,-2.0896,-2.0882,-2.0886,-2.0881,-2.088,-2.0882,-2.0882,-2.0883,-2.0892,-2.0892,-2.088,-2.088,-2.088,-2.088,0,0,0,0,0,0,0,-2.0894,-2.0894,-2.0899,-2.0894,-2.0893,-2.0889,-2.0889,-2.0894,-2.0887,-2.0886,-2.0884,-2.0884,-2.0882,-2.0883,-2.0883,-2.0892,-2.088,-2.088,-2.0881,-2.0881,-2.0912,-2.0913,0,0,0,0,0,0,-2.0895,-2.0894,-2.09,-2.0899,-2.0892,-2.089,-2.0889,-2.0891,-2.0887,-2.0886,-2.0885,-2.0884,-2.0882,-2.0882,-2.0883,-2.0898,-2.088,-2.0881,-2.0881,-2.0912,-2.0912,-2.0913,0,0,0,0,0,0,-2.0895,-2.0896,-2.09,-2.0897,-2.0897,-2.089,-2.0893,-2.0891,-2.0892,-2.0887,-2.0885,-2.0887,-2.0882,-2.0882,-2.089,-2.0898,-2.0881,-2.0881,-2.0911,-2.0912,-2.0913,-2.093,0,0,0,0,0,0,-2.0895,-2.0896,-2.09,-2.0897,-2.0897,-2.0907,-2.0893,-2.0892,-2.0893,-2.0891,-2.0888,-2.0887,-2.0882,-2.089,-2.0891,-2.0898,-2.0882,-2.091,-2.0911,-2.0913,-2.0928,-2.0931,-2.0933,0,0,0,0,0,-2.0894,-2.0905,-2.0901,-2.0902,-2.0903,-2.0907,-2.0908,-2.0901,-2.0894,-2.0899,-2.0895,-2.0887,-2.0897,-2.0891,-2.0891,-2.0899,-2.091,-2.0911,-2.0912,-2.0927,-2.093,-2.0933,0,0,0,0,0,0,-2.091,-2.0905,-2.09,-2.091,-2.0909,-2.0905,-2.0911,-2.0904,-2.0906,-2.0904,-2.0896,-2.0895,-2.0905,-2.0903,-2.0896,-2.0913,-2.0902,-2.0904,-2.0913,-2.0916,-2.0919,-2.0918,-2.0882,0,0,0,0,0,-2.0915,-2.0918,-2.0914,-2.0923,-2.0923,-2.0917,-2.0919,-2.0914,-2.0913,-2.0912,-2.091,-2.0909,-2.0912,-2.0914,-2.0917,-2.0928,-2.0927,-2.0934,-2.0937,-2.0939,-2.094,-2.0946,-2.0949,-2.0918,-2.0918,-2.0918,0,0,-2.0924,-2.0922,-2.0924,-2.0926,-2.0925,-2.0929,-2.0917,-2.0922,-2.0925,-2.0913,-2.092,-2.0918,-2.0917,-2.0927,-2.0931,-2.0926,-2.0949,-2.0941,-2.0942,-2.0942,-2.0948,-2.0951,-2.0954,-2.0918,-2.0918,-2.0918,0,0,-2.0943,-2.0942,-2.0949,-2.0949,-2.0948,-2.0944,-2.0946,-2.0943,-2.0941,-2.0948,-2.0939,-2.0943,-2.0948,-2.0948,-2.0948,-2.0969,-2.0961,-2.097,-2.0982,-2.0988,-2.0991,-2.0993,-2.1,-2.1002,-2.0971,-2.0971,-2.0971,0,-2.0955,-2.0961,-2.0954,-2.096,-2.0961,-2.0951,-2.0958,-2.0958,-2.0958,-2.0959,-2.0953,-2.096,-2.0958,-2.0968,-2.0973,-2.0974,-2.0976,-2.097,-2.0991,-2.0993,-2.0995,-2.1001,-2.1004,-2.0972,-2.0972,-2.0972,-2.0972,0,-2.0975,-2.098,-2.0986,-2.0986,-2.0988,-2.0995,-2.0989,-2.0992,-2.0987,-2.0984,-2.0991,-2.099,-2.0991,-2.0994,-2.0989,-2.1003,-2.0999,-2.0993,-2.0982,-2.0999,-2.1005,-2.1007,-2.0974,-2.0973,-2.0973,-2.0973,0,0,-2.1003,-2.1,-2.1002,-2.1002,-2.1001,-2.1004,-2.1011,-2.1013,-2.1015,-2.1016,-2.1021,-2.1026,-2.102,-2.102,-2.1016,-2.1021,-2.1037,-2.1013,-2.1013,-2.1017,-2.1052,-2.1056,-2.1059,-2.1032,-2.1033,-2.1033,-2.1052,0,-2.1021,-2.1032,-2.1026,-2.1038,-2.1042,-2.1033,-2.1038,-2.1038,-2.1036,-2.1039,-2.1036,-2.104,-2.1031,-2.1032,-2.1037,-2.1034,-2.1043,-2.1033,-2.1037,-2.1037,-2.1037,-2.1062,-2.1067,-2.1085,-2.1054,-2.1054,-2.1055,0,-2.1043,-2.1045,-2.1057,-2.1055,-2.1056,-2.1061,-2.1063,-2.1066,-2.1066,-2.1064,-2.1065,-2.1059,-2.1065,-2.1056,-2.1064,-2.1057,-2.1059,-2.1057,-2.1058,-2.1057,-2.1046,-2.1062,-2.109,-2.1093,-2.1058,-2.1058,-2.1058,0,-2.1062,-2.1067,-2.1075,-2.1075,-2.1073,-2.1077,-2.1076,-2.1076,-2.1077,-2.1079,-2.108,-2.1082,-2.1083,-2.1086,-2.108,-2.1074,-2.109,-2.1079,-2.1088,-2.1088,-2.1091,-2.109,-2.1119,-2.1093,-2.1093,-2.1093,-2.1093,0,-2.1082,-2.109,-2.1083,-2.1088,-2.1096,-2.109,-2.1098,-2.1097,-2.1096,-2.1101,-2.1093,-2.1097,-2.1091,-2.1095,-2.1091,-2.1098,-2.1099,-2.1097,-2.1096,-2.1098,-2.1098,-2.1098,-2.1096,-2.1094,-2.1094,-2.1093,-2.1093,0,-2.1104,-2.11,-2.1108,-2.1105,-2.1105,-2.1111,-2.1109,-2.1113,-2.1111,-2.1116,-2.1117,-2.1113,-2.1117,-2.1113,-2.1116,-2.1114,-2.1124,-2.1121,-2.1124,-2.1123,-2.1131,-2.113,-2.116,-2.1163,-2.1136,-2.1136,-2.1137,0,-2.1117,-2.1122,-2.1121,-2.1123,-2.1123,-2.1127,-2.1129,-2.1123,-2.1126,-2.1126,-2.113,-2.1134,-2.1136,-2.1143,-2.114,-2.1143,-2.114,-2.115,-2.114,-2.1141,-2.1139,-2.1139,-2.1139,-2.1152,-2.1152,-2.1152,-2.1152,0,-2.114,-2.1138,-2.114,-2.1143,-2.1145,-2.1147,-2.1148,-2.1151,-2.1145,-2.1148,-2.1152,-2.1154,-2.1158,-2.1161,-2.1163,-2.1162,-2.1156,-2.1156,-2.1158,-2.1159,-2.116,-2.1159,-2.1129,-2.1155,-2.1155,-2.1155,-2.1154,-2.1154,-2.1157,-2.1161,-2.1161,-2.1165,-2.1165,-2.1167,-2.117,-2.1169,-2.1172,-2.1174,-2.1171,-2.1176,-2.1176,-2.1178,-2.1179,-2.1182,-2.1178,-2.1181,-2.1182,-2.1182,-2.1183,-2.116,-2.1183,-2.1183,-2.1183,-2.1183,-2.1183,0,-2.1179,-2.1179,-2.1182,-2.1184,-2.1187,-2.1182,-2.1183,-2.1186,-2.119,-2.1191,-2.1193,-2.1198,-2.1201,-2.1199,-2.1202,-2.1206,-2.1203,-2.1207,-2.1206,-2.1206,-2.1187,-2.1185,-2.1209,-2.1209,-2.1209,-2.1209,-2.1209,-2.1209,-2.1191,-2.1198,-2.1196,-2.1204,-2.1204,-2.1208,-2.121,-2.1211,-2.1211,-2.1217,-2.122,-2.1219,-2.1218,-2.1221,-2.1224,-2.1223,-2.1224,-2.1229,-2.1227,-2.121,-2.1207,-2.1205,-2.1202,-2.1229,-2.1229,-2.1245,-2.1245,-2.1245]},{"header":{"parameterUnit":"m.s-1","parameterCategory":1,"la1":30.2991,"la2":30.254,"lo1":-89.0895,"lo2":-89.0444,"dy":0.0017,"dx":0.0017,"nx":28,"ny":28,"refTime":"2025-03-30T21:00:00:Z","depth":0,"parameterNumber":3,"parameterNumberName":"V-component_of_WINDS"},"data":[0,0,0,0,0,0,0,0,0,0,0,0,0,0,0,0,0,0,0,0,0,0,0,0,0,0,0,0,0,0,0,0,0,0,0,0,0,0,0,0,0,0,0,0,0,0,0,0,0,0,0,0,0,0,0,0,0,0,1.1928,1.1929,0,1.1969,1.1969,1.1969,1.1977,1.1976,1.1976,1.1976,1.2014,1.2015,1.2017,0,0,0,0,0,0,0,0,0,0,0,0,0,1.1856,1.1858,1.1928,1.1929,1.1929,1.1968,1.1969,1.197,1.1977,1.1976,1.1976,1.1975,1.2014,1.2015,1.2017,0,0,0,0,0,0,0,0,0,0,0,0,0,1.1891,1.1858,1.1928,1.1938,1.1939,1.1968,1.1969,1.197,1.1977,1.1976,1.1976,1.1975,1.2013,1.2015,1.2017,1.2039,0,0,1.2023,1.2024,0,0,0,0,0,0,0,0,1.1889,1.1894,1.1936,1.1937,1.1938,1.1967,1.1958,1.1993,1.1977,1.1962,1.1976,1.1975,1.1999,1.2002,1.201,1.2041,1.2043,1.2023,1.2025,1.2025,1.2026,0,0,0,0,0,0,0,1.1887,1.1892,1.1944,1.1936,1.1938,1.1939,1.1944,1.1965,1.1983,1.1963,1.1964,1.1969,1.1999,1.2009,1.2011,1.2043,1.2023,1.2025,1.2026,1.2027,1.2096,1.2097,0,0,0,0,0,0,1.1883,1.189,1.1943,1.1945,1.1912,1.1941,1.1946,1.1958,1.1982,1.1986,1.1969,1.1969,1.2005,1.2009,1.2013,1.2042,1.2025,1.2027,1.2029,1.2096,1.2097,1.2097,0,0,0,0,0,0,1.1881,1.1887,1.1941,1.1918,1.1925,1.1943,1.1957,1.1959,1.1969,1.1987,1.199,1.1975,1.2005,1.201,1.2033,1.2043,1.2028,1.203,1.2095,1.2096,1.2097,1.2099,0,0,0,0,0,0,1.1879,1.1887,1.1895,1.1918,1.1926,1.1961,1.1957,1.1961,1.1972,1.1972,1.1993,1.1996,1.2005,1.203,1.2035,1.2046,1.2032,1.2094,1.2095,1.2097,1.2098,1.21,1.2101,0,0,0,0,0,1.1877,1.1893,1.1896,1.1902,1.1937,1.1962,1.1966,1.1977,1.1973,1.1982,1.1994,1.1996,1.2041,1.2033,1.2038,1.2049,1.2094,1.2095,1.2096,1.2097,1.2099,1.2101,0,0,0,0,0,0,1.187,1.1896,1.1899,1.1924,1.1941,1.1963,1.1974,1.1978,1.1996,1.1995,1.2006,1.2011,1.2034,1.2044,1.2034,1.2073,1.2067,1.207,1.2066,1.2068,1.207,1.2067,1.2033,0,0,0,0,0,1.1872,1.189,1.1912,1.1931,1.194,1.1956,1.1967,1.1974,1.1991,1.1998,1.2011,1.2028,1.2046,1.2057,1.2075,1.21,1.2105,1.211,1.2112,1.2113,1.2115,1.2131,1.2134,1.2102,1.2102,1.2102,0,0,1.1875,1.1891,1.1902,1.1931,1.1944,1.1963,1.1961,1.1981,1.1995,1.2,1.2024,1.2035,1.2054,1.2078,1.209,1.2087,1.2125,1.2115,1.2116,1.2117,1.2132,1.2135,1.2138,1.2103,1.2103,1.2103,0,0,1.189,1.1904,1.1923,1.1938,1.1959,1.197,1.1975,1.1997,1.2005,1.2029,1.2034,1.2051,1.2081,1.2095,1.2106,1.213,1.2132,1.2135,1.2144,1.2158,1.2161,1.2163,1.2173,1.2176,1.2137,1.2137,1.2137,0,1.1891,1.192,1.1932,1.1952,1.1965,1.1973,1.1992,1.2005,1.2031,1.204,1.2037,1.2077,1.209,1.2119,1.2125,1.2133,1.2139,1.2132,1.216,1.2162,1.2164,1.2174,1.2177,1.2137,1.2137,1.2137,1.2137,0,1.192,1.194,1.1953,1.198,1.1994,1.2013,1.2029,1.2042,1.2048,1.2059,1.2085,1.2101,1.2123,1.213,1.2136,1.216,1.2159,1.2158,1.2152,1.2168,1.2176,1.218,1.2138,1.2138,1.2138,1.2138,0,0,1.1931,1.1966,1.197,1.1984,1.2009,1.2025,1.2045,1.2068,1.2079,1.2097,1.2115,1.2142,1.2142,1.2155,1.2162,1.2175,1.2194,1.2173,1.2174,1.2177,1.2224,1.2225,1.2229,1.2196,1.2197,1.2198,1.2223,0,1.195,1.1987,1.2,1.2031,1.2051,1.2059,1.2077,1.2095,1.2107,1.2125,1.2137,1.2157,1.2155,1.2163,1.2176,1.2189,1.2204,1.2187,1.2213,1.2214,1.2209,1.2233,1.2234,1.2257,1.2226,1.2227,1.2227,0,1.1976,1.1997,1.203,1.2056,1.2064,1.208,1.2103,1.212,1.2141,1.2149,1.2164,1.2171,1.2193,1.2186,1.2217,1.2206,1.2217,1.2225,1.2227,1.2229,1.2222,1.2237,1.2264,1.2268,1.2233,1.2232,1.2232,0,1.1982,1.2018,1.2043,1.2054,1.2084,1.2095,1.2108,1.2128,1.2142,1.2162,1.2171,1.2193,1.2205,1.2222,1.2234,1.2228,1.2265,1.2258,1.2272,1.2271,1.2279,1.2278,1.2308,1.2285,1.2285,1.2285,1.2285,0,1.2002,1.2022,1.2047,1.2062,1.2085,1.21,1.2123,1.2136,1.2155,1.2173,1.2181,1.2198,1.2214,1.2233,1.2243,1.2268,1.2273,1.228,1.2282,1.2279,1.2279,1.2287,1.2286,1.2286,1.2286,1.2286,1.2286,0,1.2012,1.2029,1.2057,1.2084,1.2092,1.2108,1.2131,1.2146,1.2159,1.2182,1.2188,1.2208,1.2231,1.2246,1.2275,1.2282,1.2309,1.2311,1.2303,1.2304,1.2317,1.2315,1.2353,1.236,1.2332,1.2332,1.2332,0,1.2024,1.204,1.2069,1.2083,1.2097,1.2118,1.2133,1.2148,1.2163,1.219,1.2202,1.2226,1.2246,1.2283,1.23,1.2322,1.2325,1.2337,1.2328,1.2325,1.2326,1.2325,1.2327,1.2338,1.2338,1.2338,1.2338,0,1.2043,1.2051,1.2073,1.2098,1.2116,1.2136,1.2156,1.2166,1.2186,1.2202,1.2227,1.2243,1.2274,1.2298,1.2322,1.2335,1.234,1.2341,1.2346,1.2343,1.2338,1.2342,1.2307,1.234,1.234,1.234,1.234,1.234,1.2055,1.2071,1.2095,1.2119,1.2136,1.2155,1.2172,1.2188,1.2209,1.2236,1.2244,1.227,1.2292,1.2326,1.234,1.236,1.2359,1.2365,1.2366,1.2368,1.2369,1.2335,1.2365,1.2365,1.2365,1.2364,1.2364,0,1.2076,1.2092,1.2114,1.2143,1.2163,1.2168,1.2191,1.2206,1.223,1.225,1.2271,1.23,1.2324,1.2343,1.2368,1.2381,1.2384,1.2387,1.2386,1.239,1.2368,1.2362,1.2384,1.2384,1.2384,1.2384,1.2384,1.2384,1.2089,1.2116,1.2128,1.2164,1.218,1.2207,1.222,1.2238,1.2255,1.2288,1.2308,1.2321,1.2342,1.2369,1.2391,1.2396,1.2405,1.2408,1.2413,1.2393,1.2391,1.2389,1.2383,1.2409,1.241,1.2433,1.2434,1.2434]}]]